Location: Kuppenheim
(48.8299°N, 8.2568°E)
Time: 10:03:54
(UTC+00:00)

Cosmos 1271 Rocket - Pass Details

Date: 20 June 2021
Orbit: 498 x 544 km, 81.2° (Epoch: 01 August)

Event Time Altitude Azimuth Distance (km) Brightness Sun altitude
Rises 02:12:11 0° 348° (NNW) 2,602 6.9 -9.0°
Reaches altitude 10° 02:14:18 10° 348° (NNW) 1,714 5.9 -8.8°
Maximum altitude 02:18:04 90° 263° (W) 508 2.6 -8.4°
Drops below altitude 10° 02:21:49 10° 170° (S) 1,709 5.0 -8.1°
Sets 02:23:56 0° 170° (S) 2,594 5.9 -7.8°
